Year,Month,Day,Hour,Minute,Value (Times are PST for temperature in C)
2009,07,11,00,00,14.30
2009,07,11,00,01,14.30
2009,07,11,00,02,14.20
2009,07,11,00,03,14.20
2009,07,11,00,04,14.20
2009,07,11,00,05,14.20
2009,07,11,00,06,14.20
2009,07,11,00,07,14.20
2009,07,11,00,08,14.20
2009,07,11,00,09,14.20
2009,07,11,00,10,14.20
2009,07,11,00,11,14.20
2009,07,11,00,12,14.20
2009,07,11,00,13,14.20
2009,07,11,00,14,14.10
2009,07,11,00,15,14.10
2009,07,11,00,16,14.10
2009,07,11,00,17,14.00
2009,07,11,00,18,14.00
2009,07,11,00,19,14.00
2009,07,11,00,20,14.00
2009,07,11,00,21,13.90
2009,07,11,00,22,13.90
2009,07,11,00,23,13.90
2009,07,11,00,24,13.90
2009,07,11,00,25,13.90
2009,07,11,00,26,13.90
2009,07,11,00,27,13.90
2009,07,11,00,28,13.90
2009,07,11,00,29,13.90
2009,07,11,00,30,13.90
2009,07,11,00,31,13.80
2009,07,11,00,32,13.80
2009,07,11,00,33,13.80
2009,07,11,00,34,13.80
2009,07,11,00,35,13.80
2009,07,11,00,36,13.80
2009,07,11,00,37,13.80
2009,07,11,00,38,13.80
2009,07,11,00,39,13.80
2009,07,11,00,40,13.80
2009,07,11,00,41,13.90
2009,07,11,00,42,13.80
2009,07,11,00,43,13.80
2009,07,11,00,44,13.80
2009,07,11,00,45,13.80
2009,07,11,00,46,13.80
2009,07,11,00,47,13.80
2009,07,11,00,48,13.80
2009,07,11,00,49,13.80
2009,07,11,00,50,13.80
2009,07,11,00,51,13.80
2009,07,11,00,52,13.80
2009,07,11,00,53,13.80
2009,07,11,00,54,13.80
2009,07,11,00,55,13.80
2009,07,11,00,56,13.80
2009,07,11,00,57,13.80
2009,07,11,00,58,13.70
2009,07,11,00,59,13.70
2009,07,11,01,00,13.70
2009,07,11,01,01,13.70
2009,07,11,01,02,13.70
2009,07,11,01,03,13.70
2009,07,11,01,04,13.60
2009,07,11,01,05,13.60
2009,07,11,01,06,13.60
2009,07,11,01,07,13.60
2009,07,11,01,08,13.60
2009,07,11,01,09,13.60
2009,07,11,01,10,13.60
2009,07,11,01,11,13.60
2009,07,11,01,12,13.60
2009,07,11,01,13,13.60
2009,07,11,01,14,13.60
2009,07,11,01,15,13.60
2009,07,11,01,16,13.50
2009,07,11,01,17,13.50
2009,07,11,01,18,13.50
2009,07,11,01,19,13.50
2009,07,11,01,20,13.50
2009,07,11,01,21,13.40
2009,07,11,01,22,13.40
2009,07,11,01,23,13.40
2009,07,11,01,24,13.40
2009,07,11,01,25,13.40
2009,07,11,01,26,13.40
2009,07,11,01,27,13.40
2009,07,11,01,28,13.40
2009,07,11,01,29,13.40
2009,07,11,01,30,13.40
2009,07,11,01,31,13.40
2009,07,11,01,32,13.40
2009,07,11,01,33,13.30
2009,07,11,01,34,13.30
2009,07,11,01,35,13.30
2009,07,11,01,36,13.30
2009,07,11,01,37,13.30
2009,07,11,01,38,13.30
2009,07,11,01,39,13.30
2009,07,11,01,40,13.30
2009,07,11,01,41,13.20
2009,07,11,01,42,13.20
2009,07,11,01,43,13.20
2009,07,11,01,44,13.20
2009,07,11,01,45,13.20
2009,07,11,01,46,13.20
2009,07,11,01,47,13.20
2009,07,11,01,48,13.20
2009,07,11,01,49,13.20
2009,07,11,01,50,13.20
2009,07,11,01,51,13.20
2009,07,11,01,52,13.20
2009,07,11,01,53,13.10
2009,07,11,01,54,13.10
2009,07,11,01,55,13.10
2009,07,11,01,56,13.10
2009,07,11,01,57,13.00
2009,07,11,01,58,13.00
2009,07,11,01,59,12.90
2009,07,11,02,00,12.90
2009,07,11,02,01,12.90
2009,07,11,02,02,12.90
2009,07,11,02,03,12.80
2009,07,11,02,04,12.80
2009,07,11,02,05,12.80
2009,07,11,02,06,12.70
2009,07,11,02,07,12.70
2009,07,11,02,08,12.70
2009,07,11,02,09,12.70
2009,07,11,02,10,12.70
2009,07,11,02,11,12.70
2009,07,11,02,12,12.70
2009,07,11,02,13,12.70
2009,07,11,02,14,12.70
2009,07,11,02,15,12.70
2009,07,11,02,16,12.70
2009,07,11,02,17,12.70
2009,07,11,02,18,12.70
2009,07,11,02,19,12.70
2009,07,11,02,20,12.70
2009,07,11,02,21,12.70
2009,07,11,02,22,12.70
2009,07,11,02,23,12.70
2009,07,11,02,24,12.70
2009,07,11,02,25,12.70
2009,07,11,02,26,12.70
2009,07,11,02,27,12.70
2009,07,11,02,28,12.70
2009,07,11,02,29,12.70
2009,07,11,02,30,12.70
2009,07,11,02,31,12.70
2009,07,11,02,32,12.70
2009,07,11,02,33,12.70
2009,07,11,02,34,12.70
2009,07,11,02,35,12.60
2009,07,11,02,36,12.60
2009,07,11,02,37,12.50
2009,07,11,02,38,12.50
2009,07,11,02,39,12.50
2009,07,11,02,40,12.50
2009,07,11,02,41,12.40
2009,07,11,02,42,12.40
2009,07,11,02,43,12.40
2009,07,11,02,44,12.40
2009,07,11,02,45,12.40
2009,07,11,02,46,12.40
2009,07,11,02,47,12.40
2009,07,11,02,48,12.50
2009,07,11,02,49,12.40
2009,07,11,02,50,12.40
2009,07,11,02,51,12.40
2009,07,11,02,52,12.40
2009,07,11,02,53,12.40
2009,07,11,02,54,12.50
2009,07,11,02,55,12.50
2009,07,11,02,56,12.50
2009,07,11,02,57,12.50
2009,07,11,02,58,12.50
2009,07,11,02,59,12.50
2009,07,11,03,00,12.50
2009,07,11,03,01,12.40
2009,07,11,03,02,12.40
2009,07,11,03,03,12.40
2009,07,11,03,04,12.40
2009,07,11,03,05,12.40
2009,07,11,03,06,12.40
2009,07,11,03,07,12.40
2009,07,11,03,08,12.40
2009,07,11,03,09,12.40
2009,07,11,03,10,12.40
2009,07,11,03,11,12.40
2009,07,11,03,12,12.40
2009,07,11,03,13,12.40
2009,07,11,03,14,12.40
2009,07,11,03,15,12.40
2009,07,11,03,16,12.40
2009,07,11,03,17,12.40
2009,07,11,03,18,12.40
2009,07,11,03,19,12.40
2009,07,11,03,20,12.40
2009,07,11,03,21,12.40
2009,07,11,03,22,12.40
2009,07,11,03,23,12.40
2009,07,11,03,24,12.30
2009,07,11,03,25,12.30
2009,07,11,03,26,12.30
2009,07,11,03,27,12.30
2009,07,11,03,28,12.30
2009,07,11,03,29,12.30
2009,07,11,03,30,12.30
2009,07,11,03,31,12.30
2009,07,11,03,32,12.30
2009,07,11,03,33,12.30
2009,07,11,03,34,12.30
2009,07,11,03,35,12.30
2009,07,11,03,36,12.30
2009,07,11,03,37,12.30
2009,07,11,03,38,12.30
2009,07,11,03,39,12.30
2009,07,11,03,40,12.30
2009,07,11,03,41,12.30
2009,07,11,03,42,12.30
2009,07,11,03,43,12.30
2009,07,11,03,44,12.30
2009,07,11,03,45,12.30
2009,07,11,03,46,12.30
2009,07,11,03,47,12.30
2009,07,11,03,48,12.30
2009,07,11,03,49,12.30
2009,07,11,03,50,12.20
2009,07,11,03,51,12.20
2009,07,11,03,52,12.20
2009,07,11,03,53,12.20
2009,07,11,03,54,12.20
2009,07,11,03,55,12.20
2009,07,11,03,56,12.20
2009,07,11,03,57,12.20
2009,07,11,03,58,12.20
2009,07,11,03,59,12.20
2009,07,11,04,00,12.20
2009,07,11,04,01,12.20
2009,07,11,04,02,12.20
2009,07,11,04,03,12.20
2009,07,11,04,04,12.20
2009,07,11,04,05,12.20
2009,07,11,04,06,12.10
2009,07,11,04,07,12.10
2009,07,11,04,08,12.10
2009,07,11,04,09,12.10
2009,07,11,04,10,12.10
2009,07,11,04,11,12.10
2009,07,11,04,12,12.10
2009,07,11,04,13,12.10
2009,07,11,04,14,12.10
2009,07,11,04,15,12.10
2009,07,11,04,16,12.10
2009,07,11,04,17,12.10
2009,07,11,04,18,12.10
2009,07,11,04,19,12.10
2009,07,11,04,20,12.10
2009,07,11,04,21,12.10
2009,07,11,04,22,12.10
2009,07,11,04,23,12.10
2009,07,11,04,24,12.10
2009,07,11,04,25,12.00
2009,07,11,04,26,12.00
2009,07,11,04,27,12.00
2009,07,11,04,28,12.00
2009,07,11,04,29,12.00
2009,07,11,04,30,12.00
2009,07,11,04,31,12.00
2009,07,11,04,32,12.00
2009,07,11,04,33,12.00
2009,07,11,04,34,12.10
2009,07,11,04,35,12.10
2009,07,11,04,36,12.10
2009,07,11,04,37,12.10
2009,07,11,04,38,12.10
2009,07,11,04,39,12.10
2009,07,11,04,40,12.10
2009,07,11,04,41,12.00
2009,07,11,04,42,12.00
2009,07,11,04,43,12.00
2009,07,11,04,44,12.00
2009,07,11,04,45,12.00
2009,07,11,04,46,11.90
2009,07,11,04,47,11.90
2009,07,11,04,48,11.90
2009,07,11,04,49,11.90
2009,07,11,04,50,11.90
2009,07,11,04,51,11.90
2009,07,11,04,52,11.90
2009,07,11,04,53,11.90
2009,07,11,04,54,11.90
2009,07,11,04,55,11.90
2009,07,11,04,56,11.90
2009,07,11,04,57,11.90
2009,07,11,04,58,11.90
2009,07,11,04,59,11.90
2009,07,11,05,00,11.90
2009,07,11,05,01,11.90
2009,07,11,05,02,11.90
2009,07,11,05,03,11.90
2009,07,11,05,04,11.90
2009,07,11,05,05,11.90
2009,07,11,05,06,11.90
2009,07,11,05,07,11.90
2009,07,11,05,08,11.90
2009,07,11,05,09,11.90
2009,07,11,05,10,11.90
2009,07,11,05,11,12.00
2009,07,11,05,12,12.00
2009,07,11,05,13,12.10
2009,07,11,05,14,12.10
2009,07,11,05,15,12.10
2009,07,11,05,16,12.10
2009,07,11,05,17,12.10
2009,07,11,05,18,12.10
2009,07,11,05,19,12.10
2009,07,11,05,20,12.10
2009,07,11,05,21,12.10
2009,07,11,05,22,12.10
2009,07,11,05,23,12.10
2009,07,11,05,24,12.10
2009,07,11,05,25,12.10
2009,07,11,05,26,12.20
2009,07,11,05,27,12.20
2009,07,11,05,28,12.30
2009,07,11,05,29,12.30
2009,07,11,05,30,12.30
2009,07,11,05,31,12.30
2009,07,11,05,32,12.40
2009,07,11,05,33,12.40
2009,07,11,05,34,12.50
2009,07,11,05,35,12.50
2009,07,11,05,36,12.50
2009,07,11,05,37,12.50
2009,07,11,05,38,12.50
2009,07,11,05,39,12.40
2009,07,11,05,40,12.40
2009,07,11,05,41,12.40
2009,07,11,05,42,12.40
2009,07,11,05,43,12.40
2009,07,11,05,44,12.40
2009,07,11,05,45,12.40
2009,07,11,05,46,12.40
2009,07,11,05,47,12.40
2009,07,11,05,48,12.40
2009,07,11,05,49,12.40
2009,07,11,05,50,12.50
2009,07,11,05,51,12.50
2009,07,11,05,52,12.50
2009,07,11,05,53,12.50
2009,07,11,05,54,12.60
2009,07,11,05,55,12.60
2009,07,11,05,56,12.60
2009,07,11,05,57,12.60
2009,07,11,05,58,12.70
2009,07,11,05,59,12.70
2009,07,11,06,00,12.70
2009,07,11,06,01,12.70
2009,07,11,06,02,12.70
2009,07,11,06,03,12.70
2009,07,11,06,04,12.70
2009,07,11,06,05,12.70
2009,07,11,06,06,12.70
2009,07,11,06,07,12.70
2009,07,11,06,08,12.70
2009,07,11,06,09,12.70
2009,07,11,06,10,12.70
2009,07,11,06,11,12.70
2009,07,11,06,12,12.70
2009,07,11,06,13,12.70
2009,07,11,06,14,12.70
2009,07,11,06,15,12.80
2009,07,11,06,16,12.80
2009,07,11,06,17,12.80
2009,07,11,06,18,12.80
2009,07,11,06,19,12.80
2009,07,11,06,20,12.90
2009,07,11,06,21,12.90
2009,07,11,06,22,12.90
2009,07,11,06,23,12.90
2009,07,11,06,24,12.90
2009,07,11,06,25,12.90
2009,07,11,06,26,12.90
2009,07,11,06,27,13.00
2009,07,11,06,28,13.00
2009,07,11,06,29,13.00
2009,07,11,06,30,13.10
2009,07,11,06,31,13.10
2009,07,11,06,32,13.10
2009,07,11,06,33,13.10
2009,07,11,06,34,13.20
2009,07,11,06,35,13.20
2009,07,11,06,36,13.20
2009,07,11,06,37,13.20
2009,07,11,06,38,13.30
2009,07,11,06,39,13.30
2009,07,11,06,40,13.40
2009,07,11,06,41,13.40
2009,07,11,06,42,13.50
2009,07,11,06,43,13.50
2009,07,11,06,44,13.60
2009,07,11,06,45,13.70
2009,07,11,06,46,13.70
2009,07,11,06,47,13.80
2009,07,11,06,48,13.80
2009,07,11,06,49,13.90
2009,07,11,06,50,13.90
2009,07,11,06,51,14.00
2009,07,11,06,52,14.10
2009,07,11,06,53,14.30
2009,07,11,06,54,14.50
2009,07,11,06,55,14.60
2009,07,11,06,56,14.70
2009,07,11,06,57,14.90
2009,07,11,06,58,15.00
2009,07,11,06,59,15.10
2009,07,11,07,00,15.40
2009,07,11,07,01,15.60
2009,07,11,07,02,15.70
2009,07,11,07,03,15.80
2009,07,11,07,04,15.90
2009,07,11,07,05,16.10
2009,07,11,07,06,16.20
2009,07,11,07,07,16.30
2009,07,11,07,08,16.40
2009,07,11,07,09,16.50
2009,07,11,07,10,16.60
2009,07,11,07,11,16.70
2009,07,11,07,12,16.80
2009,07,11,07,13,16.90
2009,07,11,07,14,17.10
2009,07,11,07,15,17.20
2009,07,11,07,16,17.30
2009,07,11,07,17,17.40
2009,07,11,07,18,17.50
2009,07,11,07,19,17.60
2009,07,11,07,20,17.70
2009,07,11,07,21,17.80
2009,07,11,07,22,17.90
2009,07,11,07,23,17.90
2009,07,11,07,24,18.00
2009,07,11,07,25,18.10
2009,07,11,07,26,18.20
2009,07,11,07,27,18.20
2009,07,11,07,28,18.30
2009,07,11,07,29,18.30
2009,07,11,07,30,18.40
2009,07,11,07,31,18.40
2009,07,11,07,32,18.40
2009,07,11,07,33,18.50
2009,07,11,07,34,18.50
2009,07,11,07,35,18.50
2009,07,11,07,36,18.40
2009,07,11,07,37,18.40
2009,07,11,07,38,18.40
2009,07,11,07,39,18.40
2009,07,11,07,40,18.40
2009,07,11,07,41,18.40
2009,07,11,07,42,18.40
2009,07,11,07,43,18.40
2009,07,11,07,44,18.50
2009,07,11,07,45,18.60
2009,07,11,07,46,18.60
2009,07,11,07,47,18.70
2009,07,11,07,48,18.80
2009,07,11,07,49,18.80
2009,07,11,07,50,18.90
2009,07,11,07,51,19.00
2009,07,11,07,52,19.10
2009,07,11,07,53,19.20
2009,07,11,07,54,19.20
2009,07,11,07,55,19.30
2009,07,11,07,56,19.40
2009,07,11,07,57,19.40
2009,07,11,07,58,19.50
2009,07,11,07,59,19.60
2009,07,11,08,00,19.60
2009,07,11,08,01,19.60
2009,07,11,08,02,19.70
2009,07,11,08,03,19.70
2009,07,11,08,04,19.70
2009,07,11,08,05,19.70
2009,07,11,08,06,19.80
2009,07,11,08,07,19.80
2009,07,11,08,08,19.90
2009,07,11,08,09,19.90
2009,07,11,08,10,19.90
2009,07,11,08,11,19.90
2009,07,11,08,12,20.00
2009,07,11,08,13,20.00
2009,07,11,08,14,20.00
2009,07,11,08,15,20.10
2009,07,11,08,16,20.10
2009,07,11,08,17,20.10
2009,07,11,08,18,20.10
2009,07,11,08,19,20.20
2009,07,11,08,20,20.20
2009,07,11,08,21,20.20
2009,07,11,08,22,20.20
2009,07,11,08,23,20.20
2009,07,11,08,24,20.30
2009,07,11,08,25,20.30
2009,07,11,08,26,20.30
2009,07,11,08,27,20.30
2009,07,11,08,28,20.30
2009,07,11,08,29,20.30
2009,07,11,08,30,20.30
2009,07,11,08,31,20.40
2009,07,11,08,32,20.40
2009,07,11,08,33,20.50
2009,07,11,08,34,20.50
2009,07,11,08,35,20.60
2009,07,11,08,36,20.70
2009,07,11,08,37,20.70
2009,07,11,08,38,20.70
2009,07,11,08,39,20.70
2009,07,11,08,40,20.80
2009,07,11,08,41,20.80
2009,07,11,08,42,20.80
2009,07,11,08,43,20.80
2009,07,11,08,44,20.80
2009,07,11,08,45,20.80
2009,07,11,08,46,20.80
2009,07,11,08,47,20.90
2009,07,11,08,48,21.00
2009,07,11,08,49,21.00
2009,07,11,08,50,21.10
2009,07,11,08,51,21.20
2009,07,11,08,52,21.20
2009,07,11,08,53,21.30
2009,07,11,08,54,21.30
2009,07,11,08,55,21.40
2009,07,11,08,56,21.40
2009,07,11,08,57,21.40
2009,07,11,08,58,21.40
2009,07,11,08,59,21.40
2009,07,11,09,00,21.40
2009,07,11,09,01,21.40
2009,07,11,09,02,21.40
2009,07,11,09,03,21.40
2009,07,11,09,04,21.30
2009,07,11,09,05,21.30
2009,07,11,09,06,21.40
2009,07,11,09,07,21.40
2009,07,11,09,08,21.50
2009,07,11,09,09,21.60
2009,07,11,09,10,21.60
2009,07,11,09,11,21.60
2009,07,11,09,12,21.60
2009,07,11,09,13,21.60
2009,07,11,09,14,21.60
2009,07,11,09,15,21.70
2009,07,11,09,16,21.70
2009,07,11,09,17,21.70
2009,07,11,09,18,21.70
2009,07,11,09,19,21.70
2009,07,11,09,20,21.70
2009,07,11,09,21,21.70
2009,07,11,09,22,21.70
2009,07,11,09,23,21.70
2009,07,11,09,24,21.70
2009,07,11,09,25,21.60
2009,07,11,09,26,21.60
2009,07,11,09,27,21.60
2009,07,11,09,28,21.60
2009,07,11,09,29,21.70
2009,07,11,09,30,21.80
2009,07,11,09,31,21.80
2009,07,11,09,32,21.80
2009,07,11,09,33,21.90
2009,07,11,09,34,21.90
2009,07,11,09,35,22.00
2009,07,11,09,36,22.10
2009,07,11,09,37,22.30
2009,07,11,09,38,22.30
2009,07,11,09,39,22.30
2009,07,11,09,40,22.30
2009,07,11,09,41,22.30
2009,07,11,09,42,22.30
2009,07,11,09,43,22.30
2009,07,11,09,44,22.30
2009,07,11,09,45,22.40
2009,07,11,09,46,22.40
2009,07,11,09,47,22.40
2009,07,11,09,48,22.30
2009,07,11,09,49,22.40
2009,07,11,09,50,22.40
2009,07,11,09,51,22.40
2009,07,11,09,52,22.50
2009,07,11,09,53,22.50
2009,07,11,09,54,22.60
2009,07,11,09,55,22.70
2009,07,11,09,56,22.70
2009,07,11,09,57,22.80
2009,07,11,09,58,22.90
2009,07,11,09,59,22.90
2009,07,11,10,00,22.90
2009,07,11,10,01,23.00
2009,07,11,10,02,23.00
2009,07,11,10,03,23.10
2009,07,11,10,04,23.30
2009,07,11,10,05,23.40
2009,07,11,10,06,23.60
2009,07,11,10,07,23.80
2009,07,11,10,08,23.90
2009,07,11,10,09,24.10
2009,07,11,10,10,24.20
2009,07,11,10,11,24.40
2009,07,11,10,12,24.50
2009,07,11,10,13,24.70
2009,07,11,10,14,24.80
2009,07,11,10,15,24.90
2009,07,11,10,16,25.00
2009,07,11,10,17,25.00
2009,07,11,10,18,25.10
2009,07,11,10,19,25.10
2009,07,11,10,20,25.10
2009,07,11,10,21,24.90
2009,07,11,10,22,24.90
2009,07,11,10,23,24.80
2009,07,11,10,24,24.80
2009,07,11,10,25,24.80
2009,07,11,10,26,24.70
2009,07,11,10,27,24.50
2009,07,11,10,28,24.50
2009,07,11,10,29,24.60
2009,07,11,10,30,24.70
2009,07,11,10,31,24.70
2009,07,11,10,32,24.80
2009,07,11,10,33,24.90
2009,07,11,10,34,25.10
2009,07,11,10,35,25.30
2009,07,11,10,36,25.30
2009,07,11,10,37,25.40
2009,07,11,10,38,25.60
2009,07,11,10,39,25.70
2009,07,11,10,40,25.80
2009,07,11,10,41,25.80
2009,07,11,10,42,25.70
2009,07,11,10,43,25.70
2009,07,11,10,44,25.60
2009,07,11,10,45,25.60
2009,07,11,10,46,25.60
2009,07,11,10,47,25.60
2009,07,11,10,48,25.60
2009,07,11,10,49,25.70
2009,07,11,10,50,25.80
2009,07,11,10,51,25.80
2009,07,11,10,52,25.80
2009,07,11,10,53,25.70
2009,07,11,10,54,25.50
2009,07,11,10,55,25.40
2009,07,11,10,56,25.30
2009,07,11,10,57,25.30
2009,07,11,10,58,25.30
2009,07,11,10,59,25.30
2009,07,11,11,00,25.30
2009,07,11,11,01,25.20
2009,07,11,11,02,25.10
2009,07,11,11,03,25.00
2009,07,11,11,04,24.90
2009,07,11,11,05,24.80
2009,07,11,11,06,24.60
2009,07,11,11,07,24.60
2009,07,11,11,08,24.50
2009,07,11,11,09,24.50
2009,07,11,11,10,24.50
2009,07,11,11,11,24.40
2009,07,11,11,12,24.30
2009,07,11,11,13,24.30
2009,07,11,11,14,24.30
2009,07,11,11,15,24.30
2009,07,11,11,16,24.30
2009,07,11,11,17,24.20
2009,07,11,11,18,24.20
2009,07,11,11,19,24.20
2009,07,11,11,20,24.10
2009,07,11,11,21,24.10
2009,07,11,11,22,24.20
2009,07,11,11,23,24.30
2009,07,11,11,24,24.30
2009,07,11,11,25,24.20
2009,07,11,11,26,24.20
2009,07,11,11,27,24.20
2009,07,11,11,28,24.20
2009,07,11,11,29,24.20
2009,07,11,11,30,24.30
2009,07,11,11,31,24.40
2009,07,11,11,32,24.40
2009,07,11,11,33,24.40
2009,07,11,11,34,24.30
2009,07,11,11,35,24.30
2009,07,11,11,36,24.30
2009,07,11,11,37,24.30
2009,07,11,11,38,24.40
2009,07,11,11,39,24.50
2009,07,11,11,40,24.60
2009,07,11,11,41,24.60
2009,07,11,11,42,24.60
2009,07,11,11,43,24.60
2009,07,11,11,44,24.70
2009,07,11,11,45,24.60
2009,07,11,11,46,24.50
2009,07,11,11,47,24.50
2009,07,11,11,48,24.60
2009,07,11,11,49,24.60
2009,07,11,11,50,24.50
2009,07,11,11,51,24.50
2009,07,11,11,52,24.60
2009,07,11,11,53,24.60
2009,07,11,11,54,24.80
2009,07,11,11,55,24.80
2009,07,11,11,56,24.80
2009,07,11,11,57,24.90
2009,07,11,11,58,24.90
2009,07,11,11,59,24.90
2009,07,11,12,00,24.90
2009,07,11,12,01,24.90
2009,07,11,12,02,24.80
2009,07,11,12,03,24.80
2009,07,11,12,04,24.70
2009,07,11,12,05,24.70
2009,07,11,12,06,24.70
2009,07,11,12,07,24.70
2009,07,11,12,08,24.80
2009,07,11,12,09,24.90
2009,07,11,12,10,25.00
2009,07,11,12,11,25.00
2009,07,11,12,12,25.10
2009,07,11,12,13,25.20
2009,07,11,12,14,25.10
2009,07,11,12,15,25.10
2009,07,11,12,16,25.10
2009,07,11,12,17,25.20
2009,07,11,12,18,25.20
2009,07,11,12,19,25.30
2009,07,11,12,20,25.40
2009,07,11,12,21,25.40
2009,07,11,12,22,25.50
2009,07,11,12,23,25.40
2009,07,11,12,24,25.50
2009,07,11,12,25,25.70
2009,07,11,12,26,25.60
2009,07,11,12,27,25.60
2009,07,11,12,28,25.70
2009,07,11,12,29,25.70
2009,07,11,12,30,25.70
2009,07,11,12,31,25.70
2009,07,11,12,32,25.70
2009,07,11,12,33,25.80
2009,07,11,12,34,25.80
2009,07,11,12,35,25.90
2009,07,11,12,36,25.90
2009,07,11,12,37,26.10
2009,07,11,12,38,26.20
2009,07,11,12,39,26.30
2009,07,11,12,40,26.50
2009,07,11,12,41,26.50
2009,07,11,12,42,26.60
2009,07,11,12,43,26.60
2009,07,11,12,44,26.70
2009,07,11,12,45,26.80
2009,07,11,12,46,26.90
2009,07,11,12,47,26.90
2009,07,11,12,48,26.80
2009,07,11,12,49,26.80
2009,07,11,12,50,26.80
2009,07,11,12,51,26.80
2009,07,11,12,52,26.80
2009,07,11,12,53,26.70
2009,07,11,12,54,26.70
2009,07,11,12,55,26.80
2009,07,11,12,56,26.80
2009,07,11,12,57,26.80
2009,07,11,12,58,26.80
2009,07,11,12,59,26.80
2009,07,11,13,00,26.70
2009,07,11,13,01,26.70
2009,07,11,13,02,26.70
2009,07,11,13,03,26.70
2009,07,11,13,04,26.80
2009,07,11,13,05,26.70
2009,07,11,13,06,26.70
2009,07,11,13,07,26.60
2009,07,11,13,08,26.60
2009,07,11,13,09,26.60
2009,07,11,13,10,26.50
2009,07,11,13,11,26.50
2009,07,11,13,12,26.60
2009,07,11,13,13,26.70
2009,07,11,13,14,26.70
2009,07,11,13,15,26.70
2009,07,11,13,16,26.70
2009,07,11,13,17,26.70
2009,07,11,13,18,26.80
2009,07,11,13,19,26.90
2009,07,11,13,20,27.00
2009,07,11,13,21,27.10
2009,07,11,13,22,27.10
2009,07,11,13,23,27.10
2009,07,11,13,24,27.10
2009,07,11,13,25,27.10
2009,07,11,13,26,27.10
2009,07,11,13,27,27.10
2009,07,11,13,28,27.20
2009,07,11,13,29,27.30
2009,07,11,13,30,27.40
2009,07,11,13,31,27.40
2009,07,11,13,32,27.40
2009,07,11,13,33,27.50
2009,07,11,13,34,27.40
2009,07,11,13,35,27.40
2009,07,11,13,36,27.30
2009,07,11,13,37,27.30
2009,07,11,13,38,27.40
2009,07,11,13,39,27.50
2009,07,11,13,40,27.60
2009,07,11,13,41,27.70
2009,07,11,13,42,27.80
2009,07,11,13,43,27.90
2009,07,11,13,44,27.80
2009,07,11,13,45,27.70
2009,07,11,13,46,27.60
2009,07,11,13,47,27.50
2009,07,11,13,48,27.50
2009,07,11,13,49,27.40
2009,07,11,13,50,27.50
2009,07,11,13,51,27.50
2009,07,11,13,52,27.50
2009,07,11,13,53,27.60
2009,07,11,13,54,27.70
2009,07,11,13,55,27.70
2009,07,11,13,56,27.70
2009,07,11,13,57,27.60
2009,07,11,13,58,27.60
2009,07,11,13,59,27.40
2009,07,11,14,00,27.30
2009,07,11,14,01,27.30
2009,07,11,14,02,27.30
2009,07,11,14,03,27.40
2009,07,11,14,04,27.50
2009,07,11,14,05,27.60
2009,07,11,14,06,27.70
2009,07,11,14,07,27.80
2009,07,11,14,08,27.80
2009,07,11,14,09,27.90
2009,07,11,14,10,28.00
2009,07,11,14,11,28.20
2009,07,11,14,12,28.30
2009,07,11,14,13,28.30
2009,07,11,14,14,28.30
2009,07,11,14,15,28.30
2009,07,11,14,16,28.30
2009,07,11,14,17,28.30
2009,07,11,14,18,28.30
2009,07,11,14,19,28.30
2009,07,11,14,20,28.20
2009,07,11,14,21,28.20
2009,07,11,14,22,28.20
2009,07,11,14,23,28.10
2009,07,11,14,24,28.20
2009,07,11,14,25,28.20
2009,07,11,14,26,28.20
2009,07,11,14,27,28.20
2009,07,11,14,28,28.30
2009,07,11,14,29,28.40
2009,07,11,14,30,28.60
2009,07,11,14,31,28.70
2009,07,11,14,32,28.80
2009,07,11,14,33,29.00
2009,07,11,14,34,29.00
2009,07,11,14,35,29.10
2009,07,11,14,36,29.10
2009,07,11,14,37,29.00
2009,07,11,14,38,29.00
2009,07,11,14,39,29.10
2009,07,11,14,40,29.10
2009,07,11,14,41,29.10
2009,07,11,14,42,29.20
2009,07,11,14,43,29.30
2009,07,11,14,44,29.40
2009,07,11,14,45,29.50
2009,07,11,14,46,29.60
2009,07,11,14,47,29.60
2009,07,11,14,48,29.60
2009,07,11,14,49,29.60
2009,07,11,14,50,29.40
2009,07,11,14,51,29.30
2009,07,11,14,52,29.20
2009,07,11,14,53,29.00
2009,07,11,14,54,28.90
2009,07,11,14,55,28.90
2009,07,11,14,56,29.00
2009,07,11,14,57,29.00
2009,07,11,14,58,29.00
2009,07,11,14,59,28.90
2009,07,11,15,00,28.90
2009,07,11,15,01,28.90
2009,07,11,15,02,28.90
2009,07,11,15,03,29.00
2009,07,11,15,04,29.10
2009,07,11,15,05,29.20
2009,07,11,15,06,29.20
2009,07,11,15,07,29.30
2009,07,11,15,08,29.40
2009,07,11,15,09,29.50
2009,07,11,15,10,29.50
2009,07,11,15,11,29.50
2009,07,11,15,12,29.60
2009,07,11,15,13,29.70
2009,07,11,15,14,29.70
2009,07,11,15,15,29.70
2009,07,11,15,16,29.50
2009,07,11,15,17,29.30
2009,07,11,15,18,29.20
2009,07,11,15,19,29.10
2009,07,11,15,20,29.10
2009,07,11,15,21,29.20
2009,07,11,15,22,29.30
2009,07,11,15,23,29.50
2009,07,11,15,24,29.60
2009,07,11,15,25,29.80
2009,07,11,15,26,30.00
2009,07,11,15,27,30.10
2009,07,11,15,28,30.20
2009,07,11,15,29,30.10
2009,07,11,15,30,30.00
2009,07,11,15,31,29.90
2009,07,11,15,32,29.80
2009,07,11,15,33,29.80
2009,07,11,15,34,29.80
2009,07,11,15,35,29.80
2009,07,11,15,36,29.90
2009,07,11,15,37,30.10
2009,07,11,15,38,30.20
2009,07,11,15,39,30.30
2009,07,11,15,40,30.40
2009,07,11,15,41,30.50
2009,07,11,15,42,30.60
2009,07,11,15,43,30.70
2009,07,11,15,44,30.80
2009,07,11,15,45,30.80
2009,07,11,15,46,30.80
2009,07,11,15,47,30.90
2009,07,11,15,48,30.90
2009,07,11,15,49,31.00
2009,07,11,15,50,31.10
2009,07,11,15,51,31.10
2009,07,11,15,52,31.10
2009,07,11,15,53,31.20
2009,07,11,15,54,31.20
2009,07,11,15,55,31.30
2009,07,11,15,56,31.30
2009,07,11,15,57,31.30
2009,07,11,15,58,31.20
2009,07,11,15,59,31.10
2009,07,11,16,00,30.90
2009,07,11,16,01,30.80
2009,07,11,16,02,30.70
2009,07,11,16,03,30.80
2009,07,11,16,04,30.80
2009,07,11,16,05,30.80
2009,07,11,16,06,30.90
2009,07,11,16,07,30.90
2009,07,11,16,08,31.00
2009,07,11,16,09,31.10
2009,07,11,16,10,31.10
2009,07,11,16,11,31.10
2009,07,11,16,12,31.10
2009,07,11,16,13,31.20
2009,07,11,16,14,31.20
2009,07,11,16,15,31.20
2009,07,11,16,16,31.20
2009,07,11,16,17,31.10
2009,07,11,16,18,31.10
2009,07,11,16,19,31.10
2009,07,11,16,20,31.00
2009,07,11,16,21,30.90
2009,07,11,16,22,30.90
2009,07,11,16,23,30.90
2009,07,11,16,24,31.00
2009,07,11,16,25,31.10
2009,07,11,16,26,31.20
2009,07,11,16,27,31.30
2009,07,11,16,28,31.40
2009,07,11,16,29,31.40
2009,07,11,16,30,31.30
2009,07,11,16,31,31.20
2009,07,11,16,32,31.10
2009,07,11,16,33,31.00
2009,07,11,16,34,30.80
2009,07,11,16,35,30.60
2009,07,11,16,36,30.40
2009,07,11,16,37,30.10
2009,07,11,16,38,30.00
2009,07,11,16,39,29.90
2009,07,11,16,40,29.90
2009,07,11,16,41,29.90
2009,07,11,16,42,29.80
2009,07,11,16,43,29.80
2009,07,11,16,44,29.70
2009,07,11,16,45,29.70
2009,07,11,16,46,29.70
2009,07,11,16,47,29.70
2009,07,11,16,48,29.70
2009,07,11,16,49,29.70
2009,07,11,16,50,29.60
2009,07,11,16,51,29.60
2009,07,11,16,52,29.60
2009,07,11,16,53,29.70
2009,07,11,16,54,29.70
2009,07,11,16,55,29.80
2009,07,11,16,56,29.90
2009,07,11,16,57,30.00
2009,07,11,16,58,30.10
2009,07,11,16,59,30.10
2009,07,11,17,00,30.20
2009,07,11,17,01,30.10
2009,07,11,17,02,30.00
2009,07,11,17,03,29.90
2009,07,11,17,04,29.90
2009,07,11,17,05,29.80
2009,07,11,17,06,29.70
2009,07,11,17,07,29.70
2009,07,11,17,08,29.60
2009,07,11,17,09,29.60
2009,07,11,17,10,29.60
2009,07,11,17,11,29.60
2009,07,11,17,12,29.70
2009,07,11,17,13,29.80
2009,07,11,17,14,29.80
2009,07,11,17,15,29.80
2009,07,11,17,16,29.90
2009,07,11,17,17,29.90
2009,07,11,17,18,29.80
2009,07,11,17,19,29.80